Location: Unspecified
(0.0000°N, 0.0000°E)
Time: 10:12:04
(UTC+00:00)

deb Explorer IX - Pass Details

Date: 16 December 2018
Orbit: 538 x 1115 km, 38.8° (Epoch: 17 January)

Event Time Altitude Azimuth Distance (km) Brightness Sun altitude
Rises 13:44:43 0° 224° (SW) 3,659 ? 54.7°
Reaches altitude 10° 13:47:34 10° 222° (SW) 2,623 ? 54.2°
Maximum altitude 13:53:45 67° 139° (SE) 880 ? 53.0°
Drops below altitude 10° 13:58:56 10° 57° (ENE) 2,209 ? 52.1°
Sets 14:01:10 0° 54° (NE) 3,043 ? 51.6°
